STARLINK-33792, 63506

Orbit data source: Space-Track

STARLINK-33792, 63506 is a payload satellite owned by SpaceX/Seattle (US) in LEO that was launched on Mon, 07 Apr 2025 UTC via an FALCON 9 launch vehicle from the Air Force Western Test Range (AFWTR). Payload-class satellites include a variety of spacecraft equipped with specific instruments for various scientific and technological missions. These include communications satellites like Starlink; space stations such as the ISS; scientific satellites like the Hubble; Earth observation satellites from companies like Planet Labs, Umbra, and HawkEye 360; GPS; miniature CubeSats for education and research; and military/defense satellites.

Loading next visibility...
Identifier
63506, 2025-071P
Orbit
LEO
Country
Flag of USUS
Related business
Manufacturer
SpaceX/Seattle
Mission
Operational Commercial Communications
Bus & Motor
STARLINK V2MO, Unknown motor
Mass
575 kg wet, ~530 kg dry
Launch date (UTC)
2025-04-07 (1 year ago)
Launch vehicle
FALCON 9
Launch site
Air Force Western Test Range (AFWTR)
Object type
Payload
Rocket body
Debris
Shape & HBR
Box + 1 Pan, 17.7 m
Radar Cross Section
41.120 m², Large (>1 m²)

Expand to show TLE details & history
Last TLE update: 14 hours ago

TLE from 14 hours ago
0 STARLINK-33792
1 63506U 25071P   26262.81764036  .00000208  00000-0  17289-4 0  9999
2 63506  53.1612 316.6688 0001428  51.0395 309.0735 15.34399926 82464
Epoch: 2026-09-19T19:37Z
TLE epoch observation values (Epoch: 2026-09-19T19:37:24.127Z)
Latitude
0.00002°
Longitude
23.59756°
Altitude
462.989 km
Speed
7.637 km/s
True Right ascension
21h 06m 40s
True Declination
0° 00' 00"
Sunlit
Object was in full shadow at epoch
Visualization orbit readout
Latitude
Unknown
Longitude
Unknown
Altitude
Unknown
Speed
Unknown
Apparent Right ascension
Unknown
Apparent Declination
Unknown
Sunlit
N/A
Visualization observer readout
Local Sidereal Time
02:39:21
Azimuth
Unknown
Elevation
Unknown
Doppler factor
Unknown
Orbital elements
Apogee altitude
463.937 km
Perigee altitude
461.983 km
Semi-major axis
6,841.097 km
Eccentricity
0.00014
Inclination
53.1612°
RAAN
316.6688°
Arg. of periapsis
51.0395°
True anomaly
309.06079°
Mean anomaly
309.0735°
Eccentric anomaly
309.06715°
Mean motion
3.83579 °/min
Orbital period
93.85 mins
BSTAR
0.000017289
Loading maneuver chart data...
Computing Atmospheric mass density...
Loading historical data...
Loading historical data...
Loading historical data...
Loading historical data...
Loading historical data...
Loading historical data...
Loading historical data...

Documentation

Showing up to 5 results
|